Location: Bayshore Village Mobile Home Park
(26.6945°N, 81.8642°W)
Time: 01:39:53
(UTC+00:00)

Hubble Space Telescope - Pass Details

Date: 25 October 2021
Orbit: 534 x 538 km, 28.5° (Epoch: 07 December)

Event Time Altitude Azimuth Distance (km) Brightness Sun altitude
Rises 00:07:33 0° 214° (SSW) 2,655 4.9 -17.8°
Reaches altitude 10° 00:10:29 10° 192° (SSW) 1,767 3.6 -18.4°
Enters shadow 00:12:56 16° 155° (SSE) 1,420 2.7 -19.0°
